Retour au catalogue

STARLINK-32780

ActifCommunicationsVLEO
NORAD 62746·PAYLOAD·🇺🇸 United States

Lancé Jan 21, 2025 depuis Cape Canaveral Space Force Station

Loading…

Prochains Passages (prochaines 24 heures)

TLE

FraisSource: CelesTrak SupGP

Époque: Sep 15, 2026, 03:41 UTC

1 62746C 25014M   26258.15395833  .00042643  00000+0  15446-2 0  2585
2 62746  43.0014 164.7669 0001400 269.9327 290.8288 15.27555755    16

Suivez STARLINK-32780 en temps réel avec AllMySat

Download on the App Store